Palmdale, CA

2:42 PM PDT on August 20, 2017 (GMT -0700)
Palmdale Af Plant 42

Weather History for KPMD - January, 2014

Change the Weather History Date:

Friday, January 17, 2014

  Actual Average Record
Temperature  
Mean Temperature 50 °F 45 °F  
Max Temperature 69 °F 59 °F 76 °F (2011)
Min Temperature 31 °F 31 °F 12 °F (1949)
Degree Days  
Heating Degree Days 15 20  
Month to date heating degree days 268 349  
Since 1 July heating degree days 1404 1513  
Cooling Degree Days 0 0  
Month to date cooling degree days 0 0  
Year to date cooling degree days 0 0  
Moisture  
Dew Point 9 °F    
Average Humidity 24    
Maximum Humidity 39    
Minimum Humidity 9    
Precipitation  
Precipitation 0.00 in 0.04 in 1.88 in (1933)
Month to date precipitation 0.00 1.00  
Year to date precipitation 0.00 1.00  
Since 1 July precipitation 2.07  
Snow  
Snow 0.00 in - 0.00 in (1974)
Month to date snowfall 0.0  
Since 1 July snowfall 0.0  
Snow Depth 0.00 in    
Sea Level Pressure  
Sea Level Pressure 30.23 in    
Wind  
Wind Speed 5 mph (WSW)    
Max Wind Speed 10 mph    
Max Gust Speed 11 mph    
Visibility 10 miles    
Events      
T = Trace of Precipitation, MM = Missing Value Source: NWS Daily Summary

Daily Weather History Graph

Daily Weather History Graph

Search for Another Location

Airport or City:

Trip Planner

Search our weather history database for the weather conditions in past years. The results will help you decide how hot, cold, wet, or windy it might be!

Date:

Astronomy

Jan. 17, 2014 Rise Set
Actual Time 6:58 AM PST 5:06 PM PST
Civil Twilight 6:31 AM PST 5:34 PM PST
Nautical Twilight 6:00 AM PST 6:05 PM PST
Astronomical Twilight 5:30 AM PST 6:35 PM PST
Moon 6:51 PM PST (1/17) 7:34 AM PST (1/17)
Length of Visible Light 11h 03m
Length of Day
10h 08m
Full, 98% of the Moon is Illuminated
Jan 17
Full
Jan 23
Last Quarter
Jan 30
New
Feb 6
First Quarter
Feb 14
Full

Hourly Weather History & Observations

Time (PST) Temp. Windchill Dew Point Humidity Pressure Visibility Wind Dir Wind Speed Gust Speed Precip Events Conditions
12:53 AM 39.9 °F 35.8 °F 6.1 °F 25% 30.23 in 10.0 mi NNW 5.8 mph - N/A   Clear
1:53 AM 37.0 °F 34.5 °F 7.0 °F 29% 30.24 in 10.0 mi South 3.5 mph - N/A   Clear
2:53 AM 35.1 °F 29.3 °F 8.1 °F 33% 30.25 in 10.0 mi SSW 6.9 mph - N/A   Clear
3:53 AM 35.1 °F 28.6 °F 8.1 °F 33% 30.24 in 10.0 mi SSW 8.1 mph - N/A   Clear
4:53 AM 34.0 °F 28.0 °F 10.9 °F 38% 30.25 in 10.0 mi SSW 6.9 mph - N/A   Clear
5:53 AM 32.0 °F 27.5 °F 8.1 °F 37% 30.27 in 10.0 mi SSW 4.6 mph - N/A   Clear
6:53 AM 30.9 °F 27.5 °F 8.1 °F 38% 30.29 in 10.0 mi WSW 3.5 mph - N/A   Clear
7:53 AM 34.0 °F - 10.9 °F 38% 30.30 in 10.0 mi Calm Calm - N/A   Clear
8:53 AM 44.1 °F - 10.0 °F 25% 30.30 in 10.0 mi Calm Calm - N/A   Clear
9:53 AM 50.0 °F - 10.0 °F 20% 30.31 in 10.0 mi Calm Calm - N/A   Clear
10:53 AM 57.9 °F - 3.0 °F 11% 30.28 in 10.0 mi North 4.6 mph - N/A   Clear
11:53 AM 60.1 °F - 5.0 °F 11% 30.24 in 10.0 mi Calm Calm - N/A   Clear
12:53 PM 63.0 °F - 5.0 °F 10% 30.21 in 10.0 mi NNW 4.6 mph - N/A   Clear
1:53 PM 66.0 °F - 7.0 °F 10% 30.18 in 10.0 mi Variable 6.9 mph - N/A   Clear
2:53 PM 68.0 °F - 6.1 °F 9% 30.17 in 10.0 mi North 6.9 mph - N/A   Clear
3:53 PM 68.0 °F - 7.0 °F 9% 30.17 in 10.0 mi North 5.8 mph - N/A   Clear
4:53 PM 64.0 °F - 9.0 °F 12% 30.18 in 10.0 mi North 4.6 mph - N/A   Clear
5:53 PM 59.0 °F - 8.1 °F 13% 30.19 in 10.0 mi Calm Calm - N/A   Clear
6:53 PM 46.9 °F - 12.0 °F 24% 30.21 in 10.0 mi South 8.1 mph - N/A   Clear
7:53 PM 45.0 °F 41.8 °F 10.9 °F 25% 30.21 in 10.0 mi SW 5.8 mph - N/A   Clear
8:53 PM 46.9 °F - 9.0 °F 21% 30.20 in 10.0 mi SW 3.5 mph - N/A   Clear
9:53 PM 41.0 °F 35.8 °F 10.9 °F 29% 30.21 in 10.0 mi SSW 8.1 mph - N/A   Clear
10:53 PM 41.0 °F 36.4 °F 12.9 °F 32% 30.19 in 10.0 mi SSW 6.9 mph - N/A   Clear
11:53 PM 37.9 °F 35.5 °F 10.9 °F 33% 30.19 in 10.0 mi WNW 3.5 mph - N/A   Clear